Weather History for Pope Field Airport, NC

Change the Weather History Date:

Monday, May 6, 2013

  Actual Average Record
Temperature  
Mean Temperature 67 °F -  
Max Temperature 75 °F 78 °F 90 °F (1986)
Min Temperature 59 °F 56 °F 44 °F (2005)
Cooling Degree Days 2    
Growing Degree Days 17 (Base 50)    
Moisture  
Dew Point 58 °F    
Average Humidity 87    
Maximum Humidity 100    
Minimum Humidity 48    
Precipitation  
Precipitation 0.52 in - - ()
Sea Level Pressure  
Sea Level Pressure 29.90 in    
Wind  
Wind Speed 9 mph (ESE)    
Max Wind Speed 13 mph    
Max Gust Speed 20 mph    
Visibility 8 miles    
Events Rain    
Averages and records for this station are not official NWS values.
T = Trace of Precipitation, MM = Missing Value Source: NWS Daily Summary

Daily Weather History Graph

Daily Weather History Graph

Search for Another Location

Airport:

Trip Planner

Search our weather history database for the weather conditions in past years. The results will help you decide how hot, cold, wet, or windy it might be!

Date:

Astronomy

May. 06, 2013 Rise Set
Actual Time 6:19 AM EDT 8:06 PM EDT
Civil Twilight 5:52 AM EDT 8:33 PM EDT
Nautical Twilight 5:18 AM EDT 9:07 PM EDT
Astronomical Twilight 4:43 AM EDT 9:42 PM EDT
Moon 4:13 AM EDT (5/6) 5:10 PM EDT (5/6)
Length of Visible Light 14h 41m
Length of Day
13h 46m
Waning Crescent, 11% of the Moon is Illuminated
May 6
Waning Crescent
May 9
New
May 18
First Quarter
May 25
Full
May 31
Last Quarter

Hourly Weather History & Observations

Time (EDT) Temp. Dew Point Humidity Pressure Visibility Wind Dir Wind Speed Gust Speed Precip Events Conditions
12:02 AM 59.0 °F 57.2 °F 94% 29.96 in 9.0 mi East 10.4 mph - N/A   Light Drizzle
12:03 AM 59.0 °F 57.2 °F 94% 29.96 in 9.0 mi East 10.4 mph - N/A   Light Drizzle
12:08 AM 59.0 °F 57.2 °F 94% 29.96 in 10.0 mi East 10.4 mph 19.6 mph N/A   Light Drizzle
12:13 AM 59.0 °F 57.2 °F 94% 29.96 in 10.0 mi East 11.5 mph 19.6 mph N/A   Light Drizzle
12:15 AM 59.0 °F 57.2 °F 94% 29.96 in 10.0 mi East 10.4 mph 19.6 mph N/A   Overcast
12:58 AM 59.4 °F 57.9 °F 95% 29.97 in 10.0 mi East 10.4 mph - 0.00 in   Overcast
1:58 AM 59.5 °F 57.9 °F 94% 29.95 in 10.0 mi East 11.5 mph - N/A   Overcast
2:58 AM 59.7 °F 57.7 °F 93% 29.94 in 10.0 mi East 12.7 mph 19.6 mph N/A   Overcast
3:18 AM 60.8 °F 57.2 °F 88% 29.92 in 10.0 mi East 11.5 mph - N/A   Mostly Cloudy
3:23 AM 60.8 °F 57.2 °F 88% 29.92 in 10.0 mi East 12.7 mph 18.4 mph N/A   Overcast
3:43 AM 60.8 °F 57.2 °F 88% 29.91 in 10.0 mi East 10.4 mph - N/A   Light Drizzle
3:48 AM 60.8 °F 57.2 °F 88% 29.91 in 10.0 mi East 9.2 mph - N/A   Light Drizzle
3:50 AM 60.8 °F 57.2 °F 88% 29.91 in 10.0 mi East 9.2 mph - N/A   Overcast
3:58 AM 60.1 °F 57.9 °F 93% 29.92 in 10.0 mi East 10.4 mph - 0.00 in   Overcast
4:01 AM 60.8 °F 57.2 °F 88% 29.91 in 10.0 mi East 12.7 mph - N/A Rain Light Rain
4:13 AM 60.8 °F 57.2 °F 88% 29.91 in 10.0 mi East 11.5 mph - N/A   Overcast
4:58 AM 60.1 °F 58.5 °F 94% 29.91 in 10.0 mi East 11.5 mph - 0.00 in   Overcast
5:58 AM 60.4 °F 58.5 °F 93% 29.91 in 10.0 mi East 12.7 mph - N/A   Overcast
6:13 AM 60.8 °F 59.0 °F 94% 29.89 in 9.0 mi East 9.2 mph - N/A   Overcast
6:14 AM 60.8 °F 59.0 °F 94% 29.89 in 8.0 mi East 9.2 mph - N/A Rain Light Rain
6:19 AM 60.8 °F 59.0 °F 94% 29.90 in 6.0 mi East 10.4 mph - N/A Rain Light Rain
6:24 AM 60.8 °F 59.0 °F 94% 29.90 in 7.0 mi East 6.9 mph - N/A   Light Drizzle
6:34 AM 60.8 °F 59.0 °F 94% 29.90 in 4.0 mi ESE 8.1 mph - N/A Rain Light Rain
6:58 AM 60.3 °F 58.8 °F 95% 29.92 in 4.0 mi ESE 9.2 mph - 0.03 in Rain Light Rain
7:10 AM 60.8 °F 59.0 °F 94% 29.91 in 8.0 mi East 6.9 mph - N/A   Overcast
7:21 AM 60.8 °F 59.0 °F 94% 29.91 in 10.0 mi East 10.4 mph - N/A Rain Light Rain
7:31 AM 60.8 °F 59.0 °F 94% 29.91 in 7.0 mi East 8.1 mph - N/A Rain Light Rain
7:46 AM 60.8 °F 59.0 °F 94% 29.91 in 10.0 mi East 8.1 mph - N/A   Overcast
7:58 AM 60.8 °F 59.4 °F 95% 29.93 in 10.0 mi ESE 4.6 mph - 0.02 in   Overcast
7:59 AM 60.8 °F 59.0 °F 94% 29.92 in 10.0 mi Variable 6.9 mph - N/A Rain Light Rain
8:15 AM 60.8 °F 59.0 °F 94% 29.91 in 10.0 mi East 10.4 mph - N/A   Overcast
8:30 AM 60.8 °F 59.0 °F 94% 29.91 in 10.0 mi East 11.5 mph - N/A   Overcast
8:40 AM 60.8 °F 60.8 °F 100% 29.91 in 10.0 mi East 12.7 mph - N/A   Overcast
8:50 AM 62.6 °F 60.8 °F 94% 29.91 in 10.0 mi East 8.1 mph - N/A   Overcast
8:58 AM 62.2 °F 60.6 °F 94% 29.92 in 10.0 mi East 10.4 mph - 0.01 in   Overcast
9:23 AM 62.6 °F 60.8 °F 94% 29.90 in 10.0 mi East 11.5 mph - N/A   Overcast
9:46 AM 64.4 °F 60.8 °F 88% 29.90 in 5.0 mi East 9.2 mph - N/A Rain Light Rain
9:56 AM 62.6 °F 60.8 °F 94% 29.90 in 8.0 mi ESE 6.9 mph - N/A Rain Light Rain
9:58 AM 62.6 °F 60.8 °F 94% 29.91 in 8.0 mi ESE 11.5 mph - 0.00 in Rain Light Rain
10:08 AM 62.6 °F 60.8 °F 94% 29.90 in 9.0 mi East 11.5 mph - N/A Rain Light Rain
10:18 AM 62.6 °F 60.8 °F 94% 29.90 in 6.0 mi East 11.5 mph - N/A Rain Light Rain
10:23 AM 62.6 °F 60.8 °F 94% 29.89 in 2.5 mi ESE 10.4 mph - N/A Rain Light Rain
10:28 AM 62.6 °F 60.8 °F 94% 29.90 in 3.0 mi East 8.1 mph - N/A Rain Light Rain
10:33 AM 62.6 °F 60.8 °F 94% 29.89 in 8.0 mi ESE 8.1 mph - N/A Rain Light Rain
10:43 AM 62.6 °F 60.8 °F 94% 29.89 in 8.0 mi Variable 4.6 mph - N/A Rain Light Rain
10:48 AM 64.4 °F 62.6 °F 94% 29.89 in 8.0 mi WSW 9.2 mph - N/A Rain Light Rain
10:53 AM 64.4 °F 62.6 °F 94% 29.90 in 1.5 mi Variable 5.8 mph - N/A Rain Rain
10:58 AM 63.5 °F 61.7 °F 94% 29.92 in 1.0 mi SW 9.2 mph - 0.10 in Rain Heavy Rain
11:03 AM 62.6 °F 60.8 °F 94% 29.90 in 1.5 mi SW 12.7 mph - N/A Rain Heavy Rain
11:08 AM 60.8 °F 59.0 °F 94% 29.91 in 1.8 mi SSW 8.1 mph - N/A Rain Heavy Rain
11:13 AM 60.8 °F 59.0 °F 94% 29.91 in 1.2 mi SW 9.2 mph - N/A Rain Heavy Rain
11:23 AM 60.8 °F 59.0 °F 94% 29.91 in 2.0 mi SW 3.5 mph - N/A Rain Heavy Rain
11:28 AM 60.8 °F 59.0 °F 94% 29.91 in 4.0 mi Variable 3.5 mph - N/A Rain Light Rain
11:33 AM 60.8 °F 59.0 °F 94% 29.90 in 9.0 mi Variable 3.5 mph - N/A Rain Rain
11:38 AM 60.8 °F 59.0 °F 94% 29.90 in 10.0 mi South 5.8 mph - N/A Rain Rain
11:48 AM 60.8 °F 59.0 °F 94% 29.90 in 10.0 mi South 4.6 mph - N/A Rain Light Rain
11:53 AM 60.8 °F 59.0 °F 94% 29.90 in 10.0 mi South 3.5 mph - N/A Rain Light Rain
11:58 AM 61.2 °F 59.2 °F 93% 29.91 in 10.0 mi Variable 2.3 mph - 0.36 in   Light Drizzle
12:37 PM 64.4 °F 59.0 °F 83% 29.88 in 10.0 mi SW 4.6 mph - N/A   Mostly Cloudy
12:55 PM 66.2 °F 60.8 °F 83% 29.88 in 10.0 mi WSW 6.9 mph - N/A   Mostly Cloudy
1:58 PM 70.9 °F 58.5 °F 65% 29.87 in 10.0 mi Variable 2.3 mph - N/A   Scattered Clouds
2:58 PM 72.7 °F 57.7 °F 59% 29.85 in 10.0 mi Variable 2.3 mph - N/A   Partly Cloudy
3:58 PM 71.4 °F 61.9 °F 72% 29.84 in 10.0 mi Variable 5.8 mph - N/A   Mostly Cloudy
4:58 PM 75.2 °F 56.7 °F 52% 29.83 in 10.0 mi SSW 10.4 mph - N/A   Mostly Cloudy
5:58 PM 75.0 °F 55.0 °F 50% 29.82 in 10.0 mi SSW 8.1 mph - N/A   Scattered Clouds
6:58 PM 74.7 °F 54.5 °F 49% 29.82 in 10.0 mi SSE 9.2 mph - N/A   Mostly Cloudy
7:58 PM 70.2 °F 49.5 °F 48% 29.85 in 10.0 mi SSE 5.8 mph - N/A   Clear
8:03 PM 69.8 °F 50.0 °F 49% 29.84 in 10.0 mi South 4.6 mph - N/A Rain Light Rain
8:06 PM 69.8 °F 50.0 °F 49% 29.84 in 10.0 mi South 4.6 mph - N/A   Clear
8:55 PM 67.6 °F 51.6 °F 56% 29.86 in 10.0 mi South 5.8 mph - N/A   Scattered Clouds
9:55 PM 65.7 °F 49.8 °F 57% 29.88 in 10.0 mi Variable 6.9 mph - N/A   Partly Cloudy
10:55 PM 63.0 °F 50.9 °F 65% 29.89 in 10.0 mi South 9.2 mph - N/A   Clear
11:58 PM 60.8 °F 52.2 °F 73% 29.89 in 10.0 mi Variable 1.2 mph - N/A   Clear